CAPE
0 0 0 0 0 0 0 0 0 0 0 0 0 13 13 19 1 65 0 624 1390 1026 851 1084 1169 1172 1025 728 419 148 88 105 18 0 0 1 310 330 149 145 268 392 577 670 754 597 223 24 0
0 0 0 0 0 0 0 0 0 0 0 0 0 0 137 278 267 337 1317 1631 1133 927 789 902 1153 1095 968 685 380 172 184 109 0 0 2 26 402 469 162 249 376 536 609 555 498 286 101 25 0
0 0 0 0 0 0 0 0 0 0 0 0 0 0 30 691 541 951 1755 1657 1238 715 849 939 1006 957 925 646 457 297 278 119 0 0 0 44 350 389 364 470 507 396 379 289 185 96 10 0 0
0 0 0 0 0 0 0 0 0 0 0 0 0 0 204 974 1051 1967 2054 1774 943 761 898 1143 986 828 761 709 599 415 362 129 2 0 0 12 229 456 475 529 525 335 136 28 0 0 0 0 0
0 0 0 0 0 0 0 0 0 0 0 0 0 0 149 931 1465 2414 2327 2093 1064 1244 1104 1064 916 733 662 717 649 483 332 87 14 10 14 33 137 394 577 558 391 186 96 28 0 0 0 0 0
0 0 0 0 0 0 0 0 0 0 0 0 0 0 182 802 1450 2487 2524 2164 1624 1453 1243 1036 1179 985 758 677 674 565 385 100 21 4 11 19 126 438 637 529 295 109 97 50 1 0 0 0 0
0 0 0 0 0 0 0 0 0 0 0 0 0 0 380 372 794 2154 2550 2369 2018 1697 1290 1006 1282 1228 1015 860 708 513 335 106 73 27 22 18 108 310 346 221 172 100 63 7 0 0 0 0 0
0 0 0 0 0 0 0 0 0 0 0 0 0 0 382 719 684 716 2456 2333 2168 1811 1399 844 1035 1238 1260 1037 792 514 302 85 66 93 72 41 66 103 83 71 77 71 57 16 0 0 0 0 0
0 0 0 0 0 0 0 0 0 0 0 0 0 0 846 965 1069 1093 2190 2320 2332 2013 1314 892 719 895 1153 1008 941 678 379 172 236 234 121 63 8 17 39 9 10 12 3 0 0 0 0 0 0
0 0 0 0 0 0 0 0 0 0 0 0 0 0 810 863 1022 1369 2057 2412 2519 2089 1215 805 491 554 812 1034 787 614 671 410 276 166 86 0 0 0 0 0 97 23 1 0 0 0 0 0 0
0 0 0 0 0 0 0 0 0 0 0 0 0 0 389 648 795 1349 1914 2191 2390 1953 1218 680 256 241 405 410 399 467 344 162 34 23 0 0 0 0 67 19 9 18 4 0 0 0 0 0 0
0 0 0 0 0 0 0 0 0 0 0 0 0 0 0 0 399 882 1537 2064 2086 1866 1391 704 266 144 335 198 22 10 13 0 0 0 0 0 5 0 30 18 15 1 0 0 0 0 0 0 0
0 0 0 0 0 0 0 0 0 0 0 0 0 0 0 0 0 11 722 1457 2049 1808 1378 782 313 122 293 56 4 2 0 0 0 0 0 0 11 0 52 128 115 7 0 0 0 0 0 0 0
0 0 0 0 0 0 0 0 0 0 0 0 0 0 0 0 0 0 0 363 2039 1710 1337 790 239 304 197 33 126 45 28 0 13 32 0 0 172 4 137 5 71 6 0 0 0 0 57 0 147
0 0 0 0 0 0 0 0 0 0 0 0 0 0 0 0 0 0 0 29 57 1634 1068 985 610 393 252 186 269 252 131 55 318 155 43 30 81 200 2 0 4 0 0 1 184 357 494 669 483
0 0 0 0 0 0 0 0 0 0 0 0 0 0 0 0 0 0 0 0 564 1491 1022 993 928 602 393 282 438 573 353 370 669 484 139 484 221 198 59 0 0 0 42 140 481 707 504 158 0
0 0 0 0 0 0 0 0 0 0 0 0 0 0 0 0 0 0 0 0 262 1531 1431 1207 1235 1747 683 440 809 975 526 681 1070 903 487 499 223 159 0 6 46 541 729 802 566 223 179 21 0
0 1 0 0 0 0 1 1 0 0 0 0 0 0 0 0 0 0 0 0 15 1886 1444 624 645 1493 1097 720 1241 1237 920 769 1090 915 595 506 152 374 36 884 863 621 464 398 257 58 0 0 0
1 0 0 2 0 1 13 0 0 0 0 0 0 0 0 0 0 0 0 0 2 2185 1938 701 2 1168 1627 1188 834 1404 939 1170 1225 1026 793 625 316 457 224 1306 975 677 523 257 95 38 0 0 0
16 9 0 1 0 0 15 5 0 0 0 0 0 0 0 0 0 0 0 0 0 1195 2226 1910 1611 1168 1222 1541 1524 1145 900 1247 1231 1067 919 705 604 509 288 980 568 281 78 3 0 0 0 0 0
3 11 0 1 4 6 10 0 0 8 14 0 0 0 0 0 0 0 0 0 0 717 1700 1914 1635 1339 1738 1870 1797 1187 724 1199 1217 1117 1004 1123 940 768 583 632 240 145 18 0 0 0 0 0 0
5 25 15 12 11 0 58 0 1 0 1 6 1 0 0 0 0 0 0 0 0 130 1796 1948 2074 1695 1642 1529 1187 924 918 1221 1318 1252 1213 946 810 567 388 190 14 0 0 0 0 0 0 0 0
0 13 17 5 5 0 0 7 0 18 11 0 0 0 0 0 0 0 0 0 0 49 1694 2639 2333 2213 1716 1445 1197 633 877 1442 1340 1025 804 665 377 284 193 14 0 0 0 0 0 0 0 0 0
1 5 14 6 4 0 0 8 0 0 0 0 0 0 0 0 0 0 0 0 0 439 1908 2460 2471 2464 1993 1386 1047 683 902 1296 1263 901 754 476 287 136 85 2 0 0 0 0 0 0 0 0 0
19 3 0 0 0 0 0 0 0 35 3 0 0 0 0 0 0 0 0 0 0 1152 1758 2132 2099 2549 2051 1549 1017 719 507 1247 1045 989 617 365 62 38 22 0 0 0 0 0 0 0 0 0 0
0 10 0 0 0 0 2 0 0 0 0 0 0 0 0 0 0 0 0 0 136 1575 1987 2138 2204 2337 1869 1439 1226 553 253 875 1292 864 469 347 117 10 0 0 0 0 0 0 0 0 0 0 0
0 0 0 0 4 0 0 0 0 17 6 14 35 1 0 0 0 0 0 0 1771 2347 2328 2243 1955 2053 1876 1409 1166 841 819 901 614 423 149 87 1 0 0 0 0 0 0 0 0 0 0 0 0
4 1 0 2 5 0 0 0 12 58 109 24 101 37 0 0 0 0 0 0 1881 2189 2575 2240 1910 1741 1772 1285 1133 834 568 674 582 261 60 0 0 0 0 0 0 0 0 0 0 0 0 0 0
6 1 0 2 2 2 1 0 95 0 92 98 106 52 0 0 0 0 0 0 943 1747 2150 2442 1881 1566 1366 1015 786 435 580 461 182 21 0 0 0 0 0 0 0 0 0 0 0 0 0 0 0
0 0 1 2 2 0 0 0 0 11 22 163 144 23 0 81 35 4 0 0 904 1562 2308 1843 1507 1293 1196 722 360 394 180 3 0 0 0 0 0 0 0 0 0 0 0 0 0 0 0 0 0
CIN
-0 -0 -0 -0 -0 -0 -0 -0 -0 -0 -0 -0 -0 -26 -21 -43 -13 -22 -0 -304 -312 -443 -485 -375 -334 -322 -338 -393 -485 -606 -652 -615 -715 -0 -0 -23 -352 -333 -435 -424 -322 -242 -152 -114 -77 -109 -233 -386 -0
-0 -0 -0 -0 -0 -0 -0 -0 -0 -0 -0 -0 -0 -0 -41 -47 -63 -162 -318 -276 -385 -486 -526 -424 -337 -326 -344 -399 -499 -584 -559 -591 -0 -0 -285 -640 -281 -245 -410 -332 -238 -165 -137 -140 -142 -213 -294 -365 -0
-0 -0 -0 -0 -0 -0 -0 -0 -0 -0 -0 -0 -0 -0 -28 -58 -84 -119 -232 -353 -453 -529 -524 -438 -370 -356 -342 -402 -448 -511 -498 -561 -0 -0 -0 -577 -306 -266 -268 -204 -172 -206 -198 -231 -266 -314 -105 -0 -0
-0 -0 -0 -0 -0 -0 -0 -0 -0 -0 -0 -0 -0 -0 -86 -62 -86 -183 -330 -352 -468 -530 -479 -417 -402 -403 -368 -379 -408 -465 -452 -538 -396 -0 -0 -594 -357 -204 -200 -164 -166 -222 -319 -423 -0 -0 -0 -0 -0
-0 -0 -0 -0 -0 -0 -0 -0 -0 -0 -0 -0 -0 -0 -82 -83 -146 -233 -295 -325 -429 -467 -459 -445 -422 -412 -395 -354 -385 -427 -452 -578 -666 -566 -609 -519 -379 -241 -151 -162 -217 -292 -345 -425 -0 -0 -0 -0 -0
-0 -0 -0 -0 -0 -0 -0 -0 -0 -0 -0 -0 -0 -0 -75 -99 -123 -205 -277 -323 -394 -438 -437 -431 -370 -381 -382 -371 -363 -389 -426 -561 -630 -425 -565 -516 -361 -239 -162 -179 -249 -338 -337 -371 -96 -0 -0 -0 -0
-0 -0 -0 -0 -0 -0 -0 -0 -0 -0 -0 -0 -0 -0 -95 -80 -102 -130 -196 -281 -351 -366 -438 -451 -354 -348 -361 -351 -364 -395 -427 -512 -527 -549 -506 -509 -375 -274 -263 -298 -307 -351 -370 -450 -0 -0 -0 -0 -0
-0 -0 -0 -0 -0 -0 -0 -0 -0 -0 -0 -0 -0 -0 -63 -63 -67 -101 -87 -243 -326 -325 -396 -475 -405 -324 -326 -348 -353 -394 -448 -511 -503 -468 -474 -488 -415 -378 -389 -394 -363 -375 -389 -445 -0 -0 -0 -0 -0
-0 -0 -0 -0 -0 -0 -0 -0 -0 -0 -0 -0 -0 -0 -55 -55 -47 -49 -47 -157 -245 -281 -389 -487 -491 -406 -322 -378 -336 -348 -422 -479 -428 -407 -447 -481 -527 -321 -451 -510 -493 -499 -342 -0 -0 -0 -0 -0 -0
-0 -0 -0 -0 -0 -0 -0 -0 -0 -0 -0 -0 -0 -0 -40 -41 -33 -35 -36 -86 -196 -261 -391 -486 -592 -514 -414 -349 -411 -393 -354 -421 -445 -469 -505 -0 -0 -0 -0 -0 -373 -477 -312 -0 -0 -0 -0 -0 -0
-0 -0 -0 -0 -0 -0 -0 -0 -0 -0 -0 -0 -0 -0 -43 -43 -14 -18 -24 -57 -185 -272 -352 -487 -622 -628 -559 -546 -535 -439 -467 -527 -586 -627 -7 -0 -0 -0 -439 -491 -495 -512 -508 -0 -0 -0 -0 -0 -0
-0 -0 -0 -0 -0 -0 -0 -0 -0 -0 -0 -0 -0 -0 -0 -0 -28 -15 -15 -25 -139 -243 -324 -449 -546 -612 -558 -626 -712 -648 -655 -0 -0 -0 -0 -0 -347 -0 -502 -507 -501 -105 -0 -0 -0 -0 -0 -0 -0
-0 -0 -0 -0 -0 -0 -0 -0 -0 -0 -0 -0 -0 -0 -0 -0 -0 -25 -25 -24 -85 -160 -298 -376 -487 -561 -525 -650 -742 -608 -0 -0 -143 -0 -0 -0 -241 -0 -458 -359 -355 -502 -0 -0 -0 -0 -0 -0 -0
-0 -0 -0 -0 -0 -0 -0 -0 -0 -0 -0 -0 -0 -0 -0 -0 -0 -0 -0 -30 -60 -124 -304 -395 -427 -479 -518 -567 -572 -601 -592 -0 -452 -531 -0 -0 -385 -131 -333 -235 -391 -295 -0 -0 -0 -0 -263 -0 -103
-0 -0 -0 -0 -0 -0 -0 -0 -0 -0 -0 -0 -0 -0 -0 -0 -0 -0 -0 -52 -48 -83 -197 -304 -362 -411 -452 -470 -446 -478 -515 -552 -390 -430 -441 -444 -406 -318 -431 -0 -192 -0 -0 -8 -202 -89 -55 -35 -44
-0 -0 -0 -0 -0 -0 -0 -0 -0 -0 -0 -0 -0 -0 -0 -0 -0 -0 -0 -0 -97 -135 -118 -130 -293 -293 -282 -300 -274 -339 -392 -381 -312 -311 -393 -251 -318 -306 -364 -0 -0 -0 -317 -219 -91 -37 -59 -106 -0
-0 -0 -0 -0 -0 -0 -0 -0 -0 -0 -0 -0 -0 -0 -0 -0 -0 -0 -0 -0 -14 -185 -127 -85 -129 -79 -262 -267 -162 -162 -270 -238 -215 -216 -259 -240 -304 -325 -1 -391 -233 -179 -117 -70 -63 -121 -118 -135 -0
-0 -9 -0 -0 -0 -3 -13 -4 -0 -0 -0 -0 -0 -0 -0 -0 -0 -0 -0 -0 -26 -85 -129 -59 -114 -112 -259 -182 -66 -75 -127 -180 -186 -203 -202 -217 -315 -227 -258 -108 -115 -155 -159 -120 -125 -157 -0 -0 -0
-2 -65 -44 -84 -4 -19 -24 -10 -0 -0 -0 -0 -0 -0 -0 -0 -0 -0 -0 -0 -24 -39 -97 -192 -142 -243 -98 -38 -133 -35 -128 -80 -165 -137 -134 -158 -224 -171 -245 -40 -79 -128 -110 -139 -166 -186 -0 -0 -0
-21 -9 -0 -15 -5 -9 -35 -51 -0 -0 -0 -0 -0 -0 -0 -0 -0 -0 -0 -0 -0 -33 -33 -100 -88 -23 -17 -67 -39 -31 -76 -64 -100 -87 -97 -117 -133 -146 -209 -79 -134 -190 -239 -245 -0 -0 -0 -0 -0
-15 -15 -0 -44 -75 -63 -38 -0 -0 -109 -58 -0 -0 -0 -0 -0 -0 -0 -0 -0 -0 -61 -31 -31 -52 -44 -46 -63 -36 -25 -26 -46 -63 -62 -61 -46 -72 -99 -136 -104 -246 -281 -338 -0 -0 -0 -0 -0 -0
-11 -10 -12 -14 -12 -0 -18 -0 -169 -0 -22 -132 -84 -0 -0 -0 -0 -0 -0 -0 -0 -40 -54 -53 -55 -80 -72 -49 -42 -48 -18 -43 -59 -45 -48 -128 -131 -156 -181 -244 -406 -0 -0 -0 -0 -0 -0 -0 -0
-0 -8 -8 -8 -8 -0 -0 -23 -0 -129 -89 -0 -0 -0 -0 -0 -0 -0 -0 -0 -0 -73 -62 -79 -79 -70 -108 -120 -105 -126 -13 -34 -39 -80 -148 -182 -218 -223 -243 -309 -0 -0 -0 -0 -0 -0 -0 -0 -0
-1 -6 -5 -12 -16 -0 -0 -21 -0 -0 -0 -0 -2 -0 -0 -0 -0 -0 -0 -0 -0 -81 -80 -85 -81 -81 -87 -118 -82 -64 -17 -35 -42 -121 -172 -204 -250 -305 -380 -339 -0 -0 -0 -0 -0 -0 -0 -0 -0
-10 -2 -8 -0 -5 -0 -0 -2 -0 -170 -93 -0 -0 -0 -0 -0 -0 -0 -0 -0 -0 -77 -82 -98 -99 -85 -65 -79 -65 -68 -12 -33 -80 -135 -167 -197 -350 -409 -396 -0 -0 -0 -0 -0 -0 -0 -0 -0 -0
-0 -1 -1 -2 -0 -0 -9 -0 -0 -10 -0 -0 -0 -0 -10 -0 -0 -0 -0 -0 -58 -67 -96 -109 -106 -83 -63 -63 -32 -74 -165 -36 -80 -193 -237 -307 -297 -414 -0 -0 -0 -0 -0 -0 -0 -0 -0 -0 -0
-0 -0 -2 -0 -27 -2 -0 -0 -0 -29 -54 -55 -19 -25 -0 -0 -0 -0 -0 -0 -28 -75 -85 -103 -107 -88 -61 -58 -55 -56 -9 -24 -131 -263 -312 -428 -223 -0 -0 -0 -0 -0 -0 -0 -0 -0 -0 -0 -0
-3 -9 -0 -3 -3 -0 -0 -0 -36 -31 -29 -85 -47 -39 -0 -0 -0 -0 -0 -0 -13 -41 -85 -70 -102 -81 -54 -55 -26 -47 -92 -139 -269 -388 -477 -260 -0 -0 -0 -0 -0 -0 -0 -0 -0 -0 -0 -0 -0
-1 -4 -0 -4 -6 -0 -2 -0 -42 -26 -43 -37 -48 -55 -0 -0 -0 -0 -0 -0 -13 -16 -38 -90 -87 -92 -82 -52 -60 -145 -173 -270 -418 -300 -0 -0 -0 -0 -0 -0 -0 -0 -0 -0 -0 -0 -0 -0 -0
-0 -0 -0 -1 -6 -0 -0 -0 -0 -45 -68 -75 -71 -99 -0 -101 -136 -33 -0 -0 -16 -19 -51 -58 -52 -89 -63 -61 -129 -152 -297 -25 -0 -0 -0 -0 -0 -0 -0 -0 -0 -0 -0 -0 -0 -0 -0 -0 -0
Wind_Speed
25 24 21 21 26 28 36 33 35 38 37 30 30 14 18 15 14 18 9 23 14 15 13 13 15 14 13 12 13 14 14 14 14 14 15 15 16 17 16 16 16 17 18 19 19 19 18 19 19
21 20 20 23 33 40 39 34 39 38 38 37 31 19 18 14 11 10 14 14 17 14 12 13 14 13 12 12 13 13 14 13 13 13 14 14 14 15 16 16 16 17 18 18 18 18 19 18 18
18 17 21 25 35 45 40 32 37 39 37 34 28 17 15 8 9 6 20 17 14 14 10 12 12 12 11 11 11 11 11 11 11 12 12 13 14 14 15 16 16 16 16 17 18 17 17 17 17
16 17 24 32 39 36 39 39 44 43 41 38 31 20 15 4 5 4 10 14 12 11 10 11 11 10 10 13 12 11 11 10 10 11 12 12 13 12 14 14 15 15 15 15 16 17 17 17 17
17 21 29 34 39 40 40 41 43 48 43 38 30 20 16 7 6 10 10 8 10 8 10 9 9 10 12 12 11 11 10 10 11 11 11 11 12 13 13 14 14 15 14 15 16 16 16 16 15
22 22 33 39 42 40 37 40 42 46 43 39 32 23 16 1 5 5 6 6 8 8 9 7 7 9 9 10 10 10 10 10 11 11 10 11 12 12 12 12 13 14 15 15 15 15 15 15 14
26 31 38 42 44 43 38 36 38 41 46 42 33 30 15 7 1 5 4 5 7 6 8 6 4 5 8 10 9 9 9 10 10 10 10 10 11 11 11 11 12 13 14 14 14 14 13 13 12
27 32 42 42 43 47 41 41 38 37 44 42 34 29 19 9 2 2 5 5 5 5 4 6 4 4 4 6 7 8 11 10 10 10 10 10 10 11 11 12 12 12 12 12 12 11 11 10 10
25 39 44 44 44 44 42 43 40 36 35 37 41 28 6 3 3 4 6 4 3 5 5 7 6 4 3 6 6 7 9 9 10 10 12 12 12 12 11 11 11 11 11 11 11 10 10 9 9
30 42 44 40 42 44 44 43 41 38 37 33 30 25 8 5 5 7 8 8 4 8 6 9 9 7 6 4 5 3 4 6 9 10 12 14 15 14 13 11 10 10 10 10 9 9 9 9 9
31 43 42 45 46 45 47 47 43 39 40 32 31 29 13 11 10 10 10 10 9 9 8 11 12 10 8 7 5 4 2 6 4 8 14 15 14 13 12 11 10 9 9 9 8 9 9 9 9
37 37 38 40 41 45 47 45 48 42 43 36 35 32 38 20 18 15 14 12 12 11 12 11 13 12 11 7 7 5 3 4 0 7 10 11 10 12 10 10 9 9 9 9 8 9 8 8 9
37 38 38 37 36 39 44 47 47 51 46 39 38 34 33 30 27 20 16 15 16 15 16 14 14 14 11 8 7 6 4 3 3 4 9 10 8 9 9 7 7 8 8 8 8 7 8 8 9
36 41 43 41 42 41 42 44 44 53 48 44 40 37 35 33 29 29 29 17 21 22 22 21 18 15 13 10 8 7 6 5 6 6 8 8 6 7 6 7 8 6 7 8 7 11 9 11 18
36 40 41 42 40 44 42 49 51 51 47 48 45 42 38 36 32 27 23 29 21 28 21 23 19 18 14 12 9 9 7 6 4 7 9 8 6 7 6 6 10 10 12 11 14 16 18 19 20
37 36 38 38 36 39 36 51 47 49 55 52 49 46 42 39 35 32 26 21 21 19 24 31 22 21 17 16 13 11 8 5 6 7 9 7 5 6 7 8 9 9 14 14 18 19 18 20 21
23 32 34 41 32 35 34 46 45 46 47 55 53 50 47 43 41 35 31 27 20 17 24 18 19 17 16 13 20 15 10 6 5 8 7 5 5 6 6 8 10 14 17 18 19 21 20 21 23
28 30 36 41 35 31 37 41 42 36 43 49 51 54 49 48 49 40 35 32 20 21 21 28 21 18 19 18 14 14 10 7 5 5 4 3 4 5 7 11 14 15 18 20 21 21 22 22 24
30 41 41 41 39 30 32 38 40 44 41 39 50 50 53 50 51 46 38 32 22 22 20 24 22 22 24 19 17 18 14 10 6 5 3 2 3 5 7 12 14 17 19 20 21 20 22 24 26
23 16 32 43 40 39 38 37 40 44 44 42 41 45 52 54 51 51 43 36 25 21 25 28 22 14 31 15 16 16 14 12 6 5 2 1 4 6 8 12 15 18 19 19 20 20 21 22 23
15 21 27 31 41 44 41 45 38 39 40 45 46 44 45 53 56 53 50 44 33 25 23 26 31 18 14 9 16 13 15 11 8 5 2 2 5 9 11 11 16 18 18 19 19 19 19 20 20
17 8 21 26 31 29 28 50 48 38 43 45 47 49 49 48 50 54 57 50 45 33 25 23 27 28 18 13 14 18 21 16 10 7 2 3 6 9 11 13 16 18 18 18 18 19 20 19 22
17 25 25 20 14 21 18 31 47 32 37 42 46 47 51 51 48 48 52 55 48 37 31 26 25 26 24 26 22 22 20 13 11 6 2 3 7 9 12 14 17 17 18 19 19 20 21 22 22
11 12 10 11 11 19 29 24 40 30 23 42 42 42 49 52 51 49 44 47 48 36 34 29 25 27 29 26 24 19 9 18 12 7 4 2 6 9 13 15 16 17 18 18 18 19 21 22 25
16 16 15 13 9 15 28 13 32 28 26 19 46 48 46 52 52 49 47 43 45 37 35 30 27 26 29 28 24 19 25 11 13 8 5 2 6 10 12 14 15 16 16 17 18 20 22 23 25
21 14 11 13 13 14 20 10 8 13 15 15 26 47 51 51 51 51 42 38 40 39 36 32 28 25 26 27 23 19 14 11 11 8 2 6 4 9 12 14 15 15 16 17 18 20 22 24 26
18 21 19 19 13 14 12 14 15 28 29 37 16 43 49 44 49 50 45 35 37 40 38 34 28 26 25 26 24 22 19 15 7 4 5 8 7 10 13 14 14 15 16 18 19 21 23 25 27
13 21 18 15 20 13 10 10 16 25 27 30 30 36 45 47 45 52 46 35 38 39 37 34 30 26 26 26 24 21 17 12 6 7 8 8 8 13 13 14 14 15 17 18 20 22 24 27 27
10 9 14 17 11 18 23 9 18 28 31 31 33 36 34 41 35 51 52 45 39 39 38 36 30 27 27 27 22 19 16 13 10 10 9 10 12 12 13 13 14 15 17 18 21 23 25 26 27
11 17 11 11 11 12 20 16 7 21 30 32 32 30 36 31 36 52 62 52 42 43 39 35 30 28 27 25 23 22 18 16 12 8 9 12 14 14 14 14 15 16 18 20 22 23 25 27 28
Wind_Direction
286 286 288 289 277 273 263 265 257 252 255 268 288 327 327 340 319 311 69 174 95 102 104 105 106 105 100 93 89 84 80 74 71 69 67 67 65 63 62 62 60 61 63 66 65 63 54 54 53
295 287 285 280 266 260 261 265 255 246 242 263 292 312 338 327 344 42 77 103 105 105 99 106 108 108 102 97 91 87 83 79 76 72 70 69 68 64 64 61 60 61 64 62 61 65 66 58 53
298 291 280 274 265 257 263 269 264 253 245 269 303 310 312 348 37 13 103 109 102 106 101 104 108 107 105 98 93 86 83 81 80 77 74 74 73 68 66 61 58 57 56 62 67 61 50 48 53
298 289 280 269 264 268 266 268 260 259 264 276 296 287 314 2 352 42 95 96 99 106 108 107 106 105 101 102 96 92 87 84 83 80 79 79 76 69 68 61 57 54 53 49 48 53 50 48 51
293 286 272 271 269 269 269 267 263 257 261 271 291 294 298 337 87 116 117 104 100 107 111 108 107 107 107 103 101 96 92 89 86 84 81 79 82 80 71 64 58 53 47 45 49 47 44 47 54
284 283 273 268 269 269 271 265 262 258 262 266 286 293 293 346 124 141 128 129 109 118 117 116 113 110 109 106 101 96 93 91 90 86 82 82 85 83 74 64 55 52 53 52 51 47 46 50 50
275 274 271 270 269 267 270 269 266 262 257 263 276 288 282 281 185 138 154 140 117 124 123 129 130 119 112 108 105 100 96 90 88 85 82 80 85 83 77 66 60 59 54 50 49 50 52 49 49
279 276 271 270 268 267 268 268 271 272 261 261 270 287 273 258 260 144 157 150 149 131 155 157 154 138 132 118 110 105 100 94 90 87 86 84 85 86 81 75 62 56 52 55 55 60 57 58 55
281 270 269 268 268 271 271 270 271 280 278 270 260 277 267 229 251 249 171 169 184 187 178 178 172 174 173 124 118 107 100 94 91 88 94 93 93 94 84 77 65 62 57 58 62 66 59 55 54
272 270 269 274 273 272 272 272 273 280 275 271 278 267 235 219 229 235 209 216 203 197 187 166 174 184 171 171 137 141 104 93 94 93 98 105 108 109 106 89 89 74 69 67 73 67 55 53 54
278 271 276 274 273 273 272 270 272 274 263 269 274 276 243 234 241 239 233 223 209 184 201 177 176 196 184 189 184 222 138 104 85 96 114 115 108 109 101 89 79 67 73 62 65 57 47 42 35
283 279 276 276 275 272 270 274 267 267 262 271 274 277 254 251 250 249 243 234 206 198 190 174 184 188 207 187 190 193 207 239 258 103 115 112 101 104 99 95 75 67 71 59 56 42 35 32 26
288 286 287 285 282 277 274 269 268 262 261 269 270 277 273 265 253 265 253 241 213 209 197 181 183 196 190 181 191 195 182 167 243 113 121 116 95 104 96 82 63 63 60 56 42 37 28 18 14
292 286 282 282 279 279 277 273 270 260 260 263 265 269 272 267 264 258 266 244 230 218 200 187 181 188 187 208 211 191 188 165 135 125 128 118 67 97 41 21 25 64 41 36 26 13 15 11 2
295 288 284 279 279 275 277 270 265 262 263 259 261 263 269 266 263 262 273 256 242 237 207 201 194 179 191 204 208 231 214 195 173 133 135 120 87 89 47 23 7 8 10 17 15 6 7 6 8
287 287 283 280 283 279 275 265 268 265 259 259 258 258 263 263 260 261 264 277 251 225 226 205 192 185 180 208 226 233 215 199 161 135 124 118 80 90 51 44 26 21 3 5 5 2 1 0 357
306 290 286 274 283 279 277 271 269 265 263 257 255 254 256 259 257 258 260 263 275 215 206 210 195 208 182 187 228 232 210 217 178 141 131 111 94 79 61 34 13 12 8 2 360 357 355 350 347
303 297 292 279 287 289 282 281 276 280 262 257 255 251 253 253 250 254 258 257 275 245 211 220 218 208 191 185 176 221 214 222 208 151 139 113 92 67 45 16 15 7 2 358 356 353 353 350 348
311 283 280 274 286 299 289 283 278 271 273 268 255 252 249 250 249 250 256 258 258 251 226 215 215 211 191 185 187 216 224 229 233 178 161 107 58 45 16 11 7 10 0 354 352 353 351 349 349
239 235 241 262 278 281 290 286 278 271 268 267 266 255 250 246 247 245 248 252 248 241 245 242 231 199 208 198 221 218 224 245 209 196 198 84 25 26 10 16 13 8 7 8 3 1 358 360 10
235 234 240 240 277 270 288 283 280 275 269 264 263 261 255 246 242 244 243 244 245 235 232 239 245 223 256 188 226 220 223 226 228 201 204 343 27 9 11 21 14 15 16 9 11 13 14 15 25
242 286 238 238 246 243 301 269 274 281 274 266 262 257 253 249 243 241 240 241 240 239 226 223 233 244 243 231 217 223 224 219 208 188 209 1 26 21 21 20 18 22 19 25 27 24 21 21 10
249 248 311 249 239 248 256 297 249 291 282 270 263 257 250 247 245 242 239 236 238 236 227 218 221 227 230 235 228 211 244 202 199 187 150 21 11 16 17 21 23 33 36 36 31 24 18 15 7
247 253 278 253 283 245 270 302 248 276 284 274 268 264 250 244 241 242 240 233 231 231 220 215 215 222 226 230 220 223 182 179 186 175 129 41 4 6 26 34 37 42 40 34 31 22 15 14 9
314 329 322 316 280 244 306 303 238 309 268 238 254 257 251 242 238 240 237 231 226 222 217 215 215 221 225 226 221 224 195 194 181 146 114 7 340 42 41 49 44 43 38 33 27 18 14 15 11
310 314 305 306 319 318 318 303 264 316 257 278 225 243 240 240 235 235 234 230 222 216 217 215 214 215 213 218 216 208 200 178 189 135 259 51 7 40 47 45 51 46 37 30 24 19 17 14 11
326 311 320 311 289 274 288 267 259 318 307 282 293 229 232 236 230 233 229 227 217 213 213 213 210 211 202 205 211 208 206 211 234 105 101 93 65 56 55 54 48 32 38 35 28 22 18 15 12
298 312 312 308 319 302 325 329 337 321 328 303 287 250 232 231 236 229 225 224 219 214 212 211 207 203 198 202 204 207 210 199 181 143 111 92 72 75 66 57 38 38 35 34 25 23 17 15 15
336 315 309 306 267 306 317 331 351 319 326 305 271 254 236 231 243 225 222 224 221 215 214 212 213 205 202 199 199 192 189 181 158 141 119 97 87 76 69 58 54 42 31 29 23 20 19 19 17
225 232 231 301 317 319 320 252 239 333 325 298 290 243 226 249 253 225 217 220 220 215 213 214 207 208 200 190 182 177 173 168 156 142 111 91 93 79 81 67 47 36 30 27 27 27 23 18 15